THORAD DELTA 1 DEB, 8593

Orbit data source: Space-Track

THORAD DELTA 1 DEB, 8593 is space debris in SSO originally from a launch on Fri, 15 Nov 1974 UTC launched from the Air Force Western Test Range (AFWTR). Debris objects in space refer to the collection of defunct objects orbiting the Earth. Examples of debris include non-operational satellites, rocket bodies, and fragments generated from explosions, collisions, or faulty payload assembly.

Loading next visibility...
Identifier
8593, 1974-089DG
Orbit
SSO
Country
Flag of USUS
Related business
Manufacturer
Unknown
Mission
Spacecraft
Bus & Motor
Unknown
Mass
Unknown
Launch date (UTC)
1974-11-15 (51 years ago)
Launch vehicle
Unknown
Launch site
Air Force Western Test Range (AFWTR)
Object type
Payload
Rocket body
Debris
Shape & HBR
Unknown shape, 0.1 m
Radar Cross Section
Small (<0.1 m²)

Expand to show TLE details & history
Last TLE update: 14 hours ago

TLE from 14 hours ago
0 THORAD DELTA 1 DEB
1 08593U 74089DG  26125.83328110 -.00000022  00000-0  11837-3 0  9993
2 08593 101.9118  76.3903 0223314 212.3920 179.8656 12.71144381386719
Epoch: 2026-05-05T19:59Z
TLE epoch observation values (Epoch: 2026-05-05T19:59:55.487Z)
Latitude
31.54157°
Longitude
-94.6967°
Altitude
1,554.247 km
Speed
7.013 km/s
True Right ascension
04h 35m 56s
True Declination
31° 24' 14"
Sunlit
Object was in daylight at epoch
Visualization orbit readout
Latitude
Unknown
Longitude
Unknown
Altitude
Unknown
Speed
Unknown
Apparent Right ascension
Unknown
Apparent Declination
Unknown
Sunlit
N/A
Visualization observer readout
Local Sidereal Time
17:44:26
Azimuth
Unknown
Elevation
Unknown
Doppler factor
Unknown
Orbital elements
Apogee altitude
1,547.943 km
Perigee altitude
1,201.675 km
Semi-major axis
7,752.946 km
Eccentricity
0.02233
Inclination
101.9118°
RAAN
76.3903°
Arg. of periapsis
212.392°
True anomaly
179.87144°
Mean anomaly
179.8656°
Eccentric anomaly
179.86854°
Mean motion
3.17938 °/min
Orbital period
113.23 mins
BSTAR
0.00011837
Loading maneuver chart data...
Computing Atmospheric mass density...

Documentation

Showing up to 5 results
|